Flag for U.S.A. Weather past 2 weeks in Honolulu, Hawaii, U.S.A.

Now
80 °F

Scattered clouds.


Feels Like: 84 °F
Forecast: 71 / 83 °F
Wind: 3 mph from North

Location: Honolulu International Airport

Current Time: Jul 3, 2015 at 7:39:42 AM

Latest Report: Jul 3, 2015 at 6:53 AM


Visibility: 10 mi

Pressure: 29.90 "Hg

Humidity: 74%

Dew point: 71 °F

Location of HonoluluLocation

Historic Weather in Honolulu — Graph

°F

Honolulu temperature yesterday

Maximum temperature yesterday: 87 °F (at 10:53 AM)
Minimum temperature yesterday: 75 °F (at 3:53 AM)
Average temperature yesterday: 82 °F

Past Weeks' High & Low Weather Summary

 TemperatureHumidityPressure
High89 °F (Jun 22, 1:53 PM)94% (Jun 28, 11:53 PM)30.06 "Hg (Jun 28, 11:53 PM)
Low73 °F (Jun 29, 5:53 AM)45% (Jun 22, 12:53 PM)29.85 "Hg (Jul 1, 3:53 PM)
Average81 °F66%29.98 "Hg
* Reported Jun 18 5:53 AM — Jul 3 5:53 AM, Honolulu, Weather by CustomWeather, © 2015

Note: Actual official high and low records may vary slightly from our data, if they occured in-between our weather recording intervals... More about our weather records

Advertising

Honolulu weather history for previous 24 hours

 ConditionsComfort  
Time TempWeatherWind HumidityBarometerVisibility
5:53 AM
Fri, Jul 3
78 °FScattered clouds.No wind79%29.89 "Hg10 mi
4:53 AM79 °FPassing clouds.7 mph77%29.89 "Hg10 mi
3:53 AM80 °FPassing clouds.6 mph74%29.89 "Hg10 mi
2:53 AM80 °FPassing clouds.6 mph74%29.89 "Hg10 mi
1:53 AM81 °FOvercast.No wind72%29.90 "Hg10 mi
12:53 AM81 °FOvercast.No wind72%29.91 "Hg10 mi
11:53 PM
Thu, Jul 2
80 °FPartly cloudy.6 mph74%29.93 "Hg10 mi
10:53 PM81 °FPassing clouds.No wind74%29.93 "Hg10 mi
9:53 PM81 °FPassing clouds.3 mph74%29.92 "Hg10 mi
8:53 PM82 °FPassing clouds.3 mph70%29.91 "Hg10 mi
7:53 PM82 °FPassing clouds.No wind67%29.89 "Hg10 mi
6:53 PM83 °FScattered clouds.7 mph68%29.88 "Hg10 mi
5:53 PM84 °FScattered clouds.7 mph63%29.86 "Hg10 mi
4:53 PM86 °FScattered clouds.9 mph59%29.85 "Hg10 mi
3:53 PM86 °FScattered clouds.9 mph59%29.86 "Hg10 mi
2:53 PM87 °FScattered clouds.9 mph55%29.87 "Hg10 mi
1:53 PM87 °FScattered clouds.9 mph55%29.89 "Hg10 mi
12:53 PM86 °FScattered clouds.9 mph55%29.90 "Hg10 mi
11:53 AM87 °FScattered clouds.10 mph53%29.91 "Hg10 mi
10:53 AM87 °FScattered clouds.8 mph51%29.91 "Hg10 mi
9:53 AM86 °FScattered clouds.7 mph51%29.91 "Hg10 mi
8:53 AM85 °FScattered clouds.No wind53%29.91 "Hg10 mi
7:53 AM81 °FPassing clouds.3 mph67%29.91 "Hg10 mi
Weather by CustomWeather, © 2015

See weather overviewHow to use our weather pages